Time,TemperatureF,DewpointF,PressureIn,WindDirection,WindDirectionDegrees,WindSpeedMPH,WindSpeedGustMPH,Humidity,HourlyPrecipIn,Conditions,Clouds,dailyrainin,SoftwareType,DateUTC
2013-09-03 00:00:00,59.9,52.7,29.92,West,279,6.0,14.0,77,0.00,,---,0.00,VWS V14.01,2013-09-03 07:00:00,
2013-09-03 00:30:00,58.6,49.2,29.92,NW,325,12.0,15.0,71,0.00,,---,0.00,VWS V14.01,2013-09-03 07:30:00,
2013-09-03 01:00:00,58.2,47.7,29.93,NW,311,8.0,14.0,68,0.00,,---,0.00,VWS V14.01,2013-09-03 08:00:00,
2013-09-03 01:30:00,57.8,47.3,29.93,NW,318,11.0,15.0,68,0.00,,---,0.00,VWS V14.01,2013-09-03 08:30:00,
2013-09-03 02:00:00,57.8,46.9,29.93,NW,322,11.0,17.0,67,0.00,,---,0.00,VWS V14.01,2013-09-03 09:00:00,
2013-09-03 02:30:00,58.0,47.1,29.92,NW,322,7.0,17.0,67,0.00,,---,0.00,VWS V14.01,2013-09-03 09:30:00,
2013-09-03 03:00:00,58.1,47.2,29.93,North,360,9.0,17.0,67,0.00,,---,0.00,VWS V14.01,2013-09-03 10:00:00,
2013-09-03 03:30:00,58.0,47.1,29.92,NW,310,10.0,17.0,67,0.00,,---,0.00,VWS V14.01,2013-09-03 10:30:00,
2013-09-03 04:00:00,58.0,47.1,29.92,NW,304,10.0,18.0,67,0.00,,---,0.00,VWS V14.01,2013-09-03 11:00:00,
2013-09-03 04:30:00,57.9,47.0,29.92,NW,313,11.0,16.0,67,0.00,,---,0.00,VWS V14.01,2013-09-03 11:30:00,
2013-09-03 05:00:00,58.0,47.1,29.93,North,360,7.0,17.0,67,0.00,,---,0.00,VWS V14.01,2013-09-03 12:00:00,
2013-09-03 05:30:00,58.0,47.1,29.93,NW,325,10.0,18.0,67,0.00,,---,0.00,VWS V14.01,2013-09-03 12:30:00,
2013-09-03 06:00:00,57.8,46.9,29.93,WNW,284,8.0,18.0,67,0.00,,---,0.00,VWS V14.01,2013-09-03 13:00:00,
2013-09-03 06:30:00,57.5,46.6,29.94,NW,318,11.0,16.0,67,0.00,,---,0.00,VWS V14.01,2013-09-03 13:30:00,
2013-09-03 07:00:00,57.2,46.4,29.94,NW,313,12.0,19.0,67,0.00,,---,0.00,VWS V14.01,2013-09-03 14:00:00,
2013-09-03 07:30:00,56.8,46.0,29.95,North,360,10.0,17.0,67,0.00,,---,0.00,VWS V14.01,2013-09-03 14:30:00,
2013-09-03 08:00:00,56.9,46.1,29.95,NW,316,9.0,17.0,67,0.00,,---,0.00,VWS V14.01,2013-09-03 15:00:00,
2013-09-03 08:30:00,56.9,46.1,29.95,NW,317,11.0,17.0,67,0.00,,---,0.00,VWS V14.01,2013-09-03 15:30:00,
2013-09-03 09:00:00,57.2,46.4,29.96,North,360,6.0,16.0,67,0.00,,---,0.00,VWS V14.01,2013-09-03 16:00:00,
2013-09-03 09:30:00,57.8,46.5,29.97,NW,307,10.0,14.0,66,0.00,,---,0.00,VWS V14.01,2013-09-03 16:30:00,
2013-09-03 10:00:00,60.0,49.0,29.98,WNW,302,10.0,15.0,67,0.00,,---,0.00,VWS V14.01,2013-09-03 17:00:00,
2013-09-03 10:30:00,62.2,58.3,29.99,NW,317,5.0,14.0,87,0.00,,---,0.00,VWS V14.01,2013-09-03 17:30:00,
2013-09-03 11:00:00,64.6,59.3,29.99,West,273,1.0,13.0,83,0.00,,---,0.00,VWS V14.01,2013-09-03 18:00:00,
2013-09-03 11:30:00,65.9,58.8,29.99,ESE,113,5.0,14.0,78,0.00,,---,0.00,VWS V14.01,2013-09-03 18:30:00,
2013-09-03 12:00:00,67.3,57.6,30.00,West,281,0.0,12.0,71,0.00,,---,0.00,VWS V14.01,2013-09-03 19:00:00,
2013-09-03 12:30:00,66.3,58.5,29.98,North,360,0.0,17.0,76,0.00,,---,0.00,VWS V14.01,2013-09-03 19:30:00,
2013-09-03 13:00:00,67.9,60.4,29.98,SSW,207,2.0,17.0,77,0.00,,---,0.00,VWS V14.01,2013-09-03 20:00:00,
2013-09-03 13:30:00,66.7,60.3,29.98,NW,311,9.0,18.0,80,0.00,,---,0.00,VWS V14.01,2013-09-03 20:30:00,
2013-09-03 14:00:00,65.8,60.5,29.98,NNE,15,0.0,18.0,83,0.00,,---,0.00,VWS V14.01,2013-09-03 21:00:00,
2013-09-03 14:30:00,67.2,60.8,29.97,NW,321,11.0,16.0,80,0.00,,---,0.00,VWS V14.01,2013-09-03 21:30:00,
2013-09-03 15:00:00,66.2,61.2,29.97,NNW,327,3.0,18.0,84,0.00,,---,0.00,VWS V14.01,2013-09-03 22:00:00,
2013-09-03 15:30:00,66.1,61.1,29.96,NNE,16,5.0,21.0,84,0.00,,---,0.00,VWS V14.01,2013-09-03 22:30:00,
2013-09-03 16:00:00,65.9,60.9,29.94,North,360,3.0,20.0,84,0.00,,---,0.00,VWS V14.01,2013-09-03 23:00:00,
2013-09-03 16:30:00,64.8,60.8,29.95,NW,324,4.0,20.0,87,0.00,,---,0.00,VWS V14.01,2013-09-03 23:30:00,
2013-09-03 17:00:00,64.1,60.2,29.94,NW,317,11.0,20.0,87,0.00,,---,0.00,VWS V14.01,2013-09-04 00:00:00,
2013-09-03 17:30:00,63.8,59.9,29.94,WNW,283,2.0,20.0,87,0.00,,---,0.00,VWS V14.01,2013-09-04 00:30:00,
2013-09-03 18:00:00,63.0,58.8,29.93,NW,315,9.0,19.0,86,0.00,,---,0.00,VWS V14.01,2013-09-04 01:00:00,
2013-09-03 18:30:00,61.9,56.3,29.92,WNW,284,5.0,21.0,82,0.00,,---,0.00,VWS V14.01,2013-09-04 01:30:00,
2013-09-03 19:00:00,61.5,54.6,29.92,WNW,284,3.0,18.0,78,0.00,,---,0.00,VWS V14.01,2013-09-04 02:00:00,
2013-09-03 19:30:00,61.2,53.2,29.92,NW,325,6.0,20.0,75,0.00,,---,0.00,VWS V14.01,2013-09-04 02:30:00,
2013-09-03 20:00:00,60.9,52.6,29.92,North,360,11.0,24.0,74,0.00,,---,0.00,VWS V14.01,2013-09-04 03:00:00,
2013-09-03 20:30:00,60.7,52.4,29.93,WNW,286,5.0,22.0,74,0.00,,---,0.00,VWS V14.01,2013-09-04 03:30:00,
2013-09-03 21:00:00,60.5,51.8,29.94,WNW,302,5.0,22.0,73,0.00,,---,0.00,VWS V14.01,2013-09-04 04:00:00,
2013-09-03 21:30:00,60.3,50.9,29.94,WNW,303,13.0,19.0,71,0.00,,---,0.00,VWS V14.01,2013-09-04 04:30:00,
2013-09-03 22:00:00,60.0,50.6,29.95,West,280,5.0,23.0,71,0.00,,---,0.00,VWS V14.01,2013-09-04 05:00:00,
2013-09-03 22:30:00,59.8,50.0,29.94,NNW,327,13.0,21.0,70,0.00,,---,0.00,VWS V14.01,2013-09-04 05:30:00,
2013-09-03 23:00:00,59.5,49.7,29.94,NW,313,10.0,21.0,70,0.00,,---,0.00,VWS V14.01,2013-09-04 06:00:00,
2013-09-03 23:30:00,59.4,49.2,29.94,North,360,11.0,22.0,69,0.00,,---,0.00,VWS V14.01,2013-09-04 06:30:00,